| time (UTC) | temp C | wind direction | speed KPH | gust KPH | rain 1hr cm | rain 24hr cm | rain mn cm | humidity % | barometer mb |
| 20260906131537 | 26 | 11 | 16.1 | 16.1 | 0.00 | 0.00 | 0.00 | 91 | 1013.4 |
| 20260906131032 | 26 | 20 | 9.7 | 14.5 | 0.00 | 0.00 | 0.00 | 91 | 1013.2 |
| 20260906130532 | 26 | 17 | 8.0 | 14.5 | 0.00 | 0.00 | 0.00 | 92 | 1013.6 |
| 20260906130027 | 26 | 14 | 11.3 | 20.9 | 0.00 | 0.00 | 0.00 | 93 | 1013.3 |
| 20260906125525 | 26 | 15 | 6.4 | 17.7 | 0.00 | 0.00 | 0.00 | 93 | 1013.2 |
| 20260906125025 | 26 | 11 | 9.7 | 19.3 | 0.00 | 0.00 | 0.00 | 93 | 1013.2 |
| 20260906124520 | 25 | 359 | 12.9 | 12.9 | 0.00 | 0.00 | 0.00 | 94 | 1013.2 |
| 20260906124015 | 25 | 11 | 9.7 | 16.1 | 0.00 | 0.00 | 0.00 | 94 | 1013.2 |
| 20260906123514 | 25 | 12 | 11.3 | 14.5 | 0.00 | 0.00 | 0.00 | 94 | 1013.1 |
| 20260906123009 | 25 | 9 | 11.3 | 14.5 | 0.00 | 0.00 | 0.00 | 95 | 1012.9 |
| 20260906122503 | 25 | 13 | 9.7 | 12.9 | 0.00 | 0.00 | 0.00 | 95 | 1012.8 |
| 20260906121959 | 25 | 10 | 9.7 | 12.9 | 0.00 | 0.00 | 0.00 | 95 | 1012.7 |
| 20260906121455 | 25 | 8 | 9.7 | 14.5 | 0.00 | 0.00 | 0.00 | 95 | 1012.8 |
| 20260906120952 | 25 | 12 | 9.7 | 9.7 | 0.00 | 0.00 | 0.00 | 95 | 1012.9 |
| 20260906120447 | 25 | 10 | 9.7 | 12.9 | 0.00 | 0.00 | 0.00 | 95 | 1012.7 |
| 20260906115943 | 25 | 8 | 9.7 | 12.9 | 0.00 | 0.00 | 0.00 | 95 | 1012.6 |
| 20260906115438 | 24 | 8 | 9.7 | 11.3 | 0.00 | 0.00 | 0.00 | 95 | 1012.5 |
| 20260906114939 | 24 | 9 | 9.7 | 11.3 | 0.00 | 0.00 | 0.00 | 95 | 1012.5 |
| 20260906114438 | 24 | 13 | 8.0 | 9.7 | 0.00 | 0.00 | 0.00 | 95 | 1012.3 |
| 20260906113935 | 24 | 5 | 8.0 | 9.7 | 0.00 | 0.00 | 0.00 | 95 | 1012.3 |
| 20260906113433 | 24 | 12 | 8.0 | 11.3 | 0.00 | 0.00 | 0.00 | 94 | 1012.2 |
| 20260906112929 | 24 | 2 | 9.7 | 9.7 | 0.00 | 0.00 | 0.00 | 94 | 1012.3 |
| 20260906112424 | 24 | 1 | 8.0 | 9.7 | 0.00 | 0.00 | 0.00 | 95 | 1012.2 |
| 20260906111920 | 23 | 3 | 9.7 | 9.7 | 0.00 | 0.00 | 0.00 | 95 | 1012.1 |
| 20260906111419 | 23 | 8 | 6.4 | 6.4 | 0.00 | 0.00 | 0.00 | 95 | 1012.0 |
| 20260906110914 | 24 | 358 | 3.2 | 3.2 | 0.00 | 0.00 | 0.00 | 95 | 1012.1 |
| 20260906110409 | 24 | 334 | 3.2 | 3.2 | 0.00 | 0.00 | 0.00 | 94 | 1012.1 |
| 20260906105909 | 24 | 335 | 4.8 | 4.8 | 0.00 | 0.00 | 0.00 | 94 | 1012.0 |
| 20260906105404 | 24 | 332 | 4.8 | 4.8 | 0.00 | 0.00 | 0.00 | 94 | 1011.9 |
| 20260906104900 | 23 | 320 | 4.8 | 4.8 | 0.00 | 0.00 | 0.00 | 95 | 1011.9 |
| 20260906104358 | 23 | 345 | 0.0 | 1.6 | 0.00 | 0.00 | 0.00 | 95 | 1011.7 |
| 20260906103857 | 23 | 304 | 0.0 | 0.0 | 0.00 | 0.00 | 0.00 | 95 | 1011.8 |
| 20260906103356 | 23 | 304 | 0.0 | 0.0 | 0.00 | 0.00 | 0.00 | 95 | 1011.8 |
| 20260906102852 | 23 | 333 | 0.0 | 0.0 | 0.00 | 0.00 | 0.00 | 95 | 1011.8 |
| 20260906102351 | 23 | 15 | 0.0 | 0.0 | 0.00 | 0.00 | 0.00 | 95 | 1011.6 |
| 20260906101846 | 23 | 309 | 0.0 | 0.0 | 0.00 | 0.00 | 0.00 | 95 | 1011.7 |
| 20260906101341 | 23 | 309 | 0.0 | 0.0 | 0.00 | 0.00 | 0.00 | 95 | 1011.7 |
| 20260906100837 | 23 | 297 | 0.0 | 0.0 | 0.00 | 0.00 | 0.00 | 95 | 1011.6 |
| 20260906100335 | 23 | 37 | 0.0 | 0.0 | 0.00 | 0.00 | 0.00 | 96 | 1011.4 |
| 20260906095831 | 23 | 37 | 0.0 | 0.0 | 0.00 | 0.00 | 0.00 | 96 | 1011.5 |
| 20260906095326 | 23 | 345 | 0.0 | 0.0 | 0.00 | 0.00 | 0.00 | 96 | 1011.4 |
| 20260906094826 | 23 | 32 | 0.0 | 1.6 | 0.00 | 0.00 | 0.00 | 95 | 1011.5 |
| 20260906094321 | 23 | 15 | 1.6 | 1.6 | 0.00 | 0.00 | 0.00 | 95 | 1011.4 |
| 20260906093817 | 23 | 333 | 0.0 | 0.0 | 0.00 | 0.00 | 0.00 | 95 | 1011.2 |
| 20260906093313 | 23 | 0 | 0.0 | 1.6 | 0.00 | 0.00 | 0.00 | 94 | 1011.1 |
| 20260906092808 | 24 | 329 | 0.0 | 0.0 | 0.00 | 0.00 | 0.00 | 94 | 1011.0 |
| 20260906092308 | 24 | 160 | 0.0 | 1.6 | 0.00 | 0.00 | 0.00 | 93 | 1011.4 |
| 20260906091803 | 24 | 168 | 1.6 | 1.6 | 0.00 | 0.00 | 0.00 | 93 | 1011.3 |
| 20260906091259 | 24 | 169 | 0.0 | 3.2 | 0.00 | 0.00 | 0.00 | 93 | 1011.2 |
| 20260906090756 | 24 | 322 | 0.0 | 0.0 | 0.00 | 0.00 | 0.00 | 93 | 1010.8 |
| 20260906090255 | 24 | 322 | 0.0 | 0.0 | 0.00 | 0.00 | 0.00 | 93 | 1011.0 |
| 20260906085754 | 24 | 322 | 0.0 | 0.0 | 0.00 | 0.00 | 0.00 | 93 | 1011.1 |
| 20260906085253 | 24 | 322 | 0.0 | 0.0 | 0.00 | 0.00 | 0.00 | 93 | 1010.9 |
| 20260906084749 | 24 | 322 | 0.0 | 0.0 | 0.00 | 0.00 | 0.00 | 92 | 1010.8 |
| 20260906084248 | 24 | 322 | 0.0 | 0.0 | 0.00 | 0.00 | 0.00 | 92 | 1011.0 |
| 20260906083743 | 24 | 322 | 0.0 | 0.0 | 0.00 | 0.00 | 0.00 | 92 | 1011.1 |
| 20260906083239 | 24 | 336 | 0.0 | 0.0 | 0.00 | 0.00 | 0.00 | 92 | 1011.1 |
| 20260906082733 | 25 | 329 | 0.0 | 0.0 | 0.00 | 0.00 | 0.00 | 91 | 1011.2 |
| 20260906082228 | 25 | 309 | 0.0 | 0.0 | 0.00 | 0.00 | 0.00 | 91 | 1011.0 |
| 20260906081725 | 25 | 333 | 0.0 | 0.0 | 0.00 | 0.00 | 0.00 | 91 | 1011.2 |
| 20260906081219 | 25 | 321 | 0.0 | 0.0 | 0.00 | 0.00 | 0.00 | 90 | 1011.2 |
| 20260906080716 | 25 | 322 | 0.0 | 1.6 | 0.00 | 0.00 | 0.00 | 90 | 1011.2 |
| 20260906080212 | 25 | 321 | 1.6 | 3.2 | 0.00 | 0.00 | 0.00 | 90 | 1011.2 |
| 20260906075712 | 25 | 329 | 1.6 | 1.6 | 0.00 | 0.00 | 0.00 | 89 | 1011.1 |
| 20260906075206 | 25 | 315 | 0.0 | 0.0 | 0.00 | 0.00 | 0.00 | 90 | 1011.1 |
| 20260906074701 | 25 | 6 | 0.0 | 0.0 | 0.00 | 0.00 | 0.00 | 89 | 1011.0 |
| 20260906074201 | 25 | 333 | 0.0 | 0.0 | 0.00 | 0.00 | 0.00 | 89 | 1011.2 |
| 20260906073655 | 25 | 333 | 0.0 | 0.0 | 0.00 | 0.00 | 0.00 | 89 | 1010.9 |
| 20260906073151 | 25 | 229 | 0.0 | 0.0 | 0.00 | 0.00 | 0.00 | 89 | 1010.8 |
| 20260906072646 | 25 | 309 | 0.0 | 0.0 | 0.00 | 0.00 | 0.00 | 88 | 1010.9 |
| 20260906072142 | 25 | 309 | 0.0 | 0.0 | 0.00 | 0.00 | 0.00 | 88 | 1010.8 |
| 20260906071638 | 25 | 315 | 0.0 | 1.6 | 0.00 | 0.00 | 0.00 | 87 | 1011.0 |
| 20260906071138 | 25 | 337 | 0.0 | 1.6 | 0.00 | 0.00 | 0.00 | 88 | 1011.2 |
| 20260906070635 | 25 | 195 | 0.0 | 1.6 | 0.00 | 0.00 | 0.00 | 87 | 1010.9 |
| 20260906070130 | 26 | 173 | 0.0 | 1.6 | 0.00 | 0.00 | 0.00 | 86 | 1010.9 |
| 20260906065630 | 26 | 201 | 1.6 | 1.6 | 0.00 | 0.00 | 0.00 | 86 | 1011.1 |
| 20260906065125 | 26 | 322 | 0.0 | 0.0 | 0.00 | 0.00 | 0.00 | 85 | 1011.1 |
| 20260906064620 | 26 | 343 | 0.0 | 3.2 | 0.00 | 0.00 | 0.00 | 85 | 1011.2 |
| 20260906064115 | 26 | 337 | 1.6 | 3.2 | 0.00 | 0.00 | 0.00 | 84 | 1011.3 |
| 20260906063616 | 26 | 347 | 3.2 | 4.8 | 0.00 | 0.00 | 0.00 | 83 | 1011.0 |
| 20260906063112 | 26 | 349 | 3.2 | 3.2 | 0.00 | 0.00 | 0.00 | 84 | 1011.3 |
| 20260906062608 | 26 | 349 | 1.6 | 3.2 | 0.00 | 0.00 | 0.00 | 85 | 1011.2 |
| 20260906062106 | 26 | 334 | 1.6 | 1.6 | 0.00 | 0.00 | 0.00 | 87 | 1011.5 |
| 20260906061603 | 26 | 309 | 0.0 | 3.2 | 0.00 | 0.00 | 0.00 | 87 | 1011.2 |
| 20260906061102 | 25 | 324 | 1.6 | 3.2 | 0.00 | 0.00 | 0.00 | 87 | 1011.3 |
| 20260906060559 | 25 | 322 | 0.0 | 1.6 | 0.00 | 0.00 | 0.00 | 89 | 1011.5 |
| 20260906060055 | 25 | 322 | 0.0 | 1.6 | 0.00 | 0.00 | 0.00 | 89 | 1011.4 |
| 20260906055551 | 25 | 333 | 0.0 | 0.0 | 0.00 | 0.00 | 0.00 | 89 | 1011.4 |
| 20260906055046 | 25 | 322 | 0.0 | 0.0 | 0.00 | 0.00 | 0.00 | 89 | 1011.4 |
| 20260906054541 | 25 | 333 | 0.0 | 0.0 | 0.00 | 0.00 | 0.00 | 89 | 1011.4 |
| 20260906054036 | 25 | 333 | 0.0 | 0.0 | 0.00 | 0.00 | 0.00 | 89 | 1011.4 |
| 20260906053533 | 25 | 333 | 0.0 | 0.0 | 0.00 | 0.00 | 0.00 | 88 | 1011.5 |
| 20260906053028 | 25 | 315 | 0.0 | 0.0 | 0.00 | 0.00 | 0.00 | 88 | 1011.8 |
| 20260906052523 | 26 | 242 | 0.0 | 0.0 | 0.00 | 0.00 | 0.00 | 88 | 1011.6 |
| 20260906052021 | 26 | 333 | 0.0 | 3.2 | 0.00 | 0.00 | 0.00 | 87 | 1011.7 |
| 20260906051516 | 26 | 311 | 0.0 | 1.6 | 0.00 | 0.00 | 0.00 | 86 | 1011.6 |
| 20260906051011 | 26 | 333 | 0.0 | 0.0 | 0.00 | 0.00 | 0.00 | 86 | 1011.7 |
| 20260906050511 | 26 | 25 | 0.0 | 0.0 | 0.00 | 0.00 | 0.00 | 84 | 1011.6 |
| 20260906050006 | 26 | 26 | 0.0 | 1.6 | 0.00 | 0.00 | 0.00 | 84 | 1011.6 |
| 20260906045504 | 26 | 333 | 0.0 | 0.0 | 0.00 | 0.00 | 0.00 | 83 | 1011.6 |
| 20260906045000 | 26 | 336 | 0.0 | 0.0 | 0.00 | 0.00 | 0.00 | 83 | 1011.5 |
| 20260906044455 | 26 | 324 | 1.6 | 3.2 | 0.00 | 0.00 | 0.00 | 82 | 1011.5 |
| 20260906043951 | 26 | 309 | 0.0 | 0.0 | 0.00 | 0.00 | 0.00 | 83 | 1011.4 |
| 20260906043447 | 26 | 11 | 0.0 | 0.0 | 0.00 | 0.00 | 0.00 | 84 | 1011.5 |
| 20260906042942 | 26 | 11 | 0.0 | 0.0 | 0.00 | 0.00 | 0.00 | 85 | 1011.4 |
| 20260906042441 | 26 | 11 | 0.0 | 0.0 | 0.00 | 0.00 | 0.00 | 87 | 1011.3 |
| 20260906041936 | 26 | 5 | 0.0 | 1.6 | 0.00 | 0.00 | 0.00 | 87 | 1011.5 |
| 20260906041433 | 26 | 0 | 3.2 | 3.2 | 0.00 | 0.00 | 0.00 | 88 | 1011.4 |
| 20260906040932 | 26 | 322 | 0.0 | 0.0 | 0.00 | 0.00 | 0.00 | 88 | 1011.3 |
| 20260906040427 | 26 | 357 | 1.6 | 3.2 | 0.00 | 0.00 | 0.00 | 87 | 1011.3 |
| 20260906035922 | 26 | 28 | 0.0 | 6.4 | 0.00 | 0.00 | 0.00 | 87 | 1011.5 |
| 20260906035418 | 26 | 22 | 0.0 | 1.6 | 0.00 | 0.00 | 0.00 | 87 | 1011.3 |
| 20260906034913 | 26 | 0 | 0.0 | 1.6 | 0.00 | 0.00 | 0.00 | 87 | 1011.3 |
| 20260906034413 | 26 | 205 | 0.0 | 3.2 | 0.00 | 0.00 | 0.00 | 87 | 1011.3 |
| 20260906033909 | 26 | 20 | 4.8 | 4.8 | 0.00 | 0.00 | 0.00 | 86 | 1011.3 |
| 20260906033408 | 26 | 5 | 6.4 | 8.0 | 0.00 | 0.00 | 0.00 | 86 | 1011.3 |
| 20260906032904 | 26 | 359 | 1.6 | 4.8 | 0.00 | 0.00 | 0.00 | 86 | 1011.1 |
| 20260906032401 | 27 | 12 | 9.7 | 11.3 | 0.00 | 0.00 | 0.00 | 83 | 1011.1 |
| 20260906031855 | 27 | 269 | 0.0 | 0.0 | 0.00 | 0.00 | 0.00 | 83 | 1011.0 |
| 20260906031351 | 27 | 269 | 0.0 | 0.0 | 0.00 | 0.00 | 0.00 | 84 | 1011.0 |
| 20260906030846 | 27 | 269 | 0.0 | 0.0 | 0.00 | 0.00 | 0.00 | 83 | 1011.1 |
| 20260906030341 | 27 | 269 | 0.0 | 0.0 | 0.00 | 0.00 | 0.00 | 82 | 1011.2 |
| 20260906025840 | 27 | 297 | 0.0 | 0.0 | 0.00 | 0.00 | 0.00 | 81 | 1010.7 |
| 20260906025335 | 27 | 322 | 0.0 | 0.0 | 0.00 | 0.00 | 0.00 | 81 | 1010.9 |
| 20260906024834 | 27 | 322 | 0.0 | 3.2 | 0.00 | 0.00 | 0.00 | 80 | 1011.0 |
| 20260906024333 | 28 | 309 | 0.0 | 3.2 | 0.00 | 0.00 | 0.00 | 79 | 1010.9 |
| 20260906023829 | 28 | 304 | 0.0 | 1.6 | 0.00 | 0.00 | 0.00 | 79 | 1010.8 |
| 20260906023324 | 27 | 319 | 3.2 | 3.2 | 0.00 | 0.00 | 0.00 | 79 | 1011.0 |
| 20260906022820 | 27 | 332 | 0.0 | 3.2 | 0.00 | 0.00 | 0.00 | 81 | 1011.0 |
| 20260906022315 | 27 | 338 | 3.2 | 3.2 | 0.00 | 0.00 | 0.00 | 81 | 1010.6 |
| 20260906021810 | 27 | 346 | 3.2 | 3.2 | 0.00 | 0.00 | 0.00 | 81 | 1010.6 |
| 20260906021310 | 27 | 355 | 4.8 | 4.8 | 0.00 | 0.00 | 0.00 | 82 | 1010.8 |
| 20260906020810 | 27 | 1 | 1.6 | 3.2 | 0.00 | 0.00 | 0.00 | 82 | 1010.7 |
| 20260906020310 | 27 | 0 | 1.6 | 3.2 | 0.00 | 0.00 | 0.00 | 80 | 1010.5 |
| 20260906015809 | 28 | 50 | 0.0 | 0.0 | 0.00 | 0.00 | 0.00 | 80 | 1010.7 |
| 20260906015309 | 28 | 202 | 0.0 | 0.0 | 0.00 | 0.00 | 0.00 | 80 | 1010.5 |
| 20260906014809 | 27 | 242 | 0.0 | 0.0 | 0.00 | 0.00 | 0.00 | 81 | 1010.2 |
| 20260906014304 | 27 | 242 | 0.0 | 1.6 | 0.00 | 0.00 | 0.00 | 81 | 1010.5 |
| 20260906013801 | 27 | 322 | 0.0 | 0.0 | 0.00 | 0.00 | 0.00 | 81 | 1010.2 |
| 20260906013300 | 28 | 37 | 0.0 | 0.0 | 0.00 | 0.00 | 0.00 | 81 | 1010.2 |
| 20260906012756 | 28 | 22 | 0.0 | 1.6 | 0.00 | 0.00 | 0.00 | 79 | 1010.4 |
| 20260906012251 | 28 | 349 | 0.0 | 1.6 | 0.00 | 0.00 | 0.00 | 76 | 1010.2 |
| 20260906011746 | 29 | 333 | 0.0 | 0.0 | 0.00 | 0.00 | 0.00 | 74 | 1010.2 |
| 20260906011246 | 29 | 333 | 0.0 | 0.0 | 0.00 | 0.00 | 0.00 | 73 | 1010.2 |
| 20260906010742 | 30 | 333 | 0.0 | 0.0 | 0.00 | 0.00 | 0.00 | 72 | 1010.2 |
| 20260906010238 | 30 | 333 | 0.0 | 1.6 | 0.00 | 0.00 | 0.00 | 71 | 1010.1 |
| 20260906005733 | 30 | 355 | 1.6 | 1.6 | 0.00 | 0.00 | 0.00 | 70 | 1010.0 |
| 20260906005232 | 30 | 340 | 1.6 | 3.2 | 0.00 | 0.00 | 0.00 | 69 | 1010.0 |
| 20260906004731 | 30 | 334 | 1.6 | 3.2 | 0.00 | 0.00 | 0.00 | 69 | 1010.0 |
| 20260906004226 | 30 | 320 | 3.2 | 3.2 | 0.00 | 0.00 | 0.00 | 70 | 1009.8 |
| 20260906003721 | 30 | 318 | 3.2 | 3.2 | 0.00 | 0.00 | 0.00 | 69 | 1009.8 |
| 20260906003217 | 30 | 325 | 0.0 | 1.6 | 0.00 | 0.00 | 0.00 | 69 | 1010.0 |
| 20260906002717 | 31 | 330 | 3.2 | 4.8 | 0.00 | 0.00 | 0.00 | 68 | 1009.9 |
| 20260906002212 | 31 | 11 | 4.8 | 6.4 | 0.00 | 0.00 | 0.00 | 68 | 1010.0 |
| 20260906001707 | 31 | 8 | 3.2 | 4.8 | 0.00 | 0.00 | 0.00 | 69 | 1010.1 |
| 20260906001207 | 31 | 346 | 3.2 | 3.2 | 0.00 | 0.00 | 0.00 | 68 | 1010.2 |
| 20260906000703 | 31 | 353 | 3.2 | 4.8 | 0.00 | 0.00 | 0.00 | 67 | 1010.2 |
| 20260906000158 | 31 | 337 | 3.2 | 4.8 | 0.00 | 0.00 | 0.00 | 65 | 1010.3 |
| 20260905235656 | 31 | 337 | 4.8 | 4.8 | 0.00 | 0.00 | 0.00 | 65 | 1010.3 |
| 20260905235152 | 31 | 341 | 3.2 | 6.4 | 0.00 | 0.00 | 0.00 | 64 | 1010.5 |
| 20260905234647 | 31 | 3 | 4.8 | 6.4 | 0.00 | 0.00 | 0.00 | 64 | 1010.4 |
| 20260905234143 | 32 | 44 | 0.0 | 3.2 | 0.00 | 0.00 | 0.00 | 66 | 1010.4 |
| 20260905233637 | 32 | 50 | 0.0 | 1.6 | 0.00 | 0.00 | 0.00 | 64 | 1010.3 |
| 20260905233136 | 32 | 35 | 0.0 | 0.0 | 0.00 | 0.00 | 0.00 | 63 | 1010.2 |
| 20260905232632 | 32 | 297 | 0.0 | 0.0 | 0.00 | 0.00 | 0.00 | 62 | 1010.4 |
| 20260905232128 | 32 | 299 | 0.0 | 0.0 | 0.00 | 0.00 | 0.00 | 62 | 1010.2 |
| 20260905231623 | 32 | 269 | 0.0 | 1.6 | 0.00 | 0.00 | 0.00 | 62 | 1010.2 |
| 20260905231119 | 32 | 283 | 0.0 | 0.0 | 0.00 | 0.00 | 0.00 | 60 | 1010.1 |
| 20260905230615 | 32 | 287 | 0.0 | 1.6 | 0.00 | 0.00 | 0.00 | 59 | 1010.1 |
| 20260905230113 | 32 | 284 | 0.0 | 0.0 | 0.00 | 0.00 | 0.00 | 58 | 1010.0 |
| 20260905225612 | 32 | 242 | 0.0 | 1.6 | 0.00 | 0.00 | 0.00 | 59 | 1010.0 |
| 20260905225108 | 32 | 315 | 0.0 | 4.8 | 0.00 | 0.00 | 0.00 | 66 | 1010.1 |
| 20260905224607 | 32 | 316 | 6.4 | 9.7 | 0.00 | 0.00 | 0.00 | 62 | 1010.4 |
| 20260905224107 | 33 | 314 | 8.0 | 8.0 | 0.00 | 0.00 | 0.00 | 60 | 1010.2 |
| 20260905223604 | 33 | 308 | 6.4 | 8.0 | 0.00 | 0.00 | 0.00 | 64 | 1010.1 |
| 20260905223101 | 33 | 297 | 0.0 | 1.6 | 0.00 | 0.00 | 0.00 | 62 | 1009.9 |
| 20260905222600 | 33 | 326 | 0.0 | 1.6 | 0.00 | 0.00 | 0.00 | 64 | 1010.0 |
| 20260905222055 | 35 | 339 | 1.6 | 3.2 | 0.00 | 0.00 | 0.00 | 60 | 1009.9 |
| 20260905221552 | 35 | 304 | 0.0 | 1.6 | 0.00 | 0.00 | 0.00 | 58 | 1010.1 |
| 20260905221047 | 35 | 281 | 1.6 | 1.6 | 0.00 | 0.00 | 0.00 | 55 | 1009.9 |
| 20260905220543 | 35 | 300 | 0.0 | 1.6 | 0.00 | 0.00 | 0.00 | 51 | 1010.2 |
| 20260905220039 | 35 | 37 | 0.0 | 0.0 | 0.00 | 0.00 | 0.00 | 51 | 1010.3 |
| 20260905215538 | 36 | 326 | 0.0 | 0.0 | 0.00 | 0.00 | 0.00 | 50 | 1010.2 |
| 20260905215035 | 36 | 297 | 0.0 | 1.6 | 0.00 | 0.00 | 0.00 | 49 | 1010.3 |
| 20260905214530 | 37 | 7 | 0.0 | 0.0 | 0.00 | 0.00 | 0.00 | 48 | 1010.2 |
| 20260905214025 | 37 | 315 | 0.0 | 0.0 | 0.00 | 0.00 | 0.00 | 47 | 1010.3 |
| 20260905213520 | 38 | 341 | 3.2 | 3.2 | 0.00 | 0.00 | 0.00 | 51 | 1010.3 |
| 20260905213016 | 38 | 318 | 3.2 | 6.4 | 0.00 | 0.00 | 0.00 | 45 | 1010.3 |
| 20260905212511 | 39 | 246 | 0.0 | 3.2 | 0.00 | 0.00 | 0.00 | 46 | 1010.4 |
| 20260905212010 | 38 | 262 | 0.0 | 3.2 | 0.00 | 0.00 | 0.00 | 45 | 1010.3 |
| 20260905211505 | 37 | 310 | 0.0 | 0.0 | 0.00 | 0.00 | 0.00 | 51 | 1010.3 |
| 20260905211001 | 37 | 303 | 1.6 | 3.2 | 0.00 | 0.00 | 0.00 | 45 | 1010.3 |
| 20260905210457 | 37 | 135 | 0.0 | 1.6 | 0.00 | 0.00 | 0.00 | 48 | 1010.5 |
| 20260905205956 | 37 | 331 | 3.2 | 9.7 | 0.00 | 0.00 | 0.00 | 45 | 1010.4 |
| 20260905205450 | 38 | 313 | 4.8 | 4.8 | 0.00 | 0.00 | 0.00 | 46 | 1010.4 |
| 20260905204949 | 38 | 269 | 0.0 | 0.0 | 0.00 | 0.00 | 0.00 | 47 | 1010.6 |
| 20260905204445 | 38 | 52 | 0.0 | 3.2 | 0.00 | 0.00 | 0.00 | 45 | 1010.5 |
| 20260905203944 | 38 | 315 | 3.2 | 3.2 | 0.00 | 0.00 | 0.00 | 46 | 1010.7 |
| 20260905203440 | 37 | 284 | 1.6 | 1.6 | 0.00 | 0.00 | 0.00 | 50 | 1010.7 |
| 20260905202936 | 36 | 359 | 4.8 | 8.0 | 0.00 | 0.00 | 0.00 | 53 | 1010.9 |
| 20260905202431 | 37 | 9 | 3.2 | 4.8 | 0.00 | 0.00 | 0.00 | 48 | 1010.6 |
| 20260905201926 | 37 | 297 | 0.0 | 1.6 | 0.00 | 0.00 | 0.00 | 47 | 1010.8 |
| 20260905201421 | 36 | 291 | 0.0 | 4.8 | 0.00 | 0.00 | 0.00 | 52 | 1011.0 |
| 20260905200921 | 36 | 29 | 0.0 | 1.6 | 0.00 | 0.00 | 0.00 | 52 | 1011.1 |
| 20260905200417 | 36 | 230 | 0.0 | 1.6 | 0.00 | 0.00 | 0.00 | 51 | 1011.2 |
| 20260905195915 | 36 | 345 | 0.0 | 1.6 | 0.00 | 0.00 | 0.00 | 51 | 1011.2 |
| 20260905195410 | 36 | 342 | 3.2 | 3.2 | 0.00 | 0.00 | 0.00 | 50 | 1011.3 |
| 20260905194906 | 36 | 309 | 0.0 | 1.6 | 0.00 | 0.00 | 0.00 | 53 | 1011.4 |
| 20260905194406 | 36 | 244 | 0.0 | 1.6 | 0.00 | 0.00 | 0.00 | 52 | 1011.6 |
| 20260905193906 | 36 | 291 | 1.6 | 4.8 | 0.00 | 0.00 | 0.00 | 50 | 1011.7 |
| 20260905193400 | 36 | 255 | 0.0 | 1.6 | 0.00 | 0.00 | 0.00 | 50 | 1011.7 |
| 20260905192856 | 36 | 22 | 1.6 | 3.2 | 0.00 | 0.00 | 0.00 | 51 | 1011.6 |
| 20260905192351 | 36 | 285 | 0.0 | 6.4 | 0.00 | 0.00 | 0.00 | 49 | 1011.7 |
| 20260905191851 | 37 | 0 | 4.8 | 6.4 | 0.00 | 0.00 | 0.00 | 47 | 1011.9 |
| 20260905191350 | 36 | 50 | 0.0 | 8.0 | 0.00 | 0.00 | 0.00 | 51 | 1011.7 |
| 20260905190850 | 36 | 26 | 6.4 | 12.9 | 0.00 | 0.00 | 0.00 | 49 | 1011.7 |
| 20260905190348 | 36 | 11 | 6.4 | 9.7 | 0.00 | 0.00 | 0.00 | 51 | 1011.9 |
| 20260905185847 | 36 | 16 | 0.0 | 8.0 | 0.00 | 0.00 | 0.00 | 49 | 1012.0 |
| 20260905185343 | 36 | 345 | 4.8 | 8.0 | 0.00 | 0.00 | 0.00 | 50 | 1012.0 |
| 20260905184842 | 36 | 353 | 11.3 | 14.5 | 0.00 | 0.00 | 0.00 | 51 | 1012.1 |
| 20260905184341 | 36 | 355 | 4.8 | 8.0 | 0.00 | 0.00 | 0.00 | 53 | 1012.1 |
| 20260905183839 | 36 | 357 | 6.4 | 12.9 | 0.00 | 0.00 | 0.00 | 48 | 1012.3 |
| 20260905183335 | 37 | 348 | 1.6 | 4.8 | 0.00 | 0.00 | 0.00 | 49 | 1012.3 |
| 20260905182836 | 37 | 317 | 3.2 | 4.8 | 0.00 | 0.00 | 0.00 | 47 | 1012.2 |
| 20260905182335 | 36 | 251 | 3.2 | 3.2 | 0.00 | 0.00 | 0.00 | 51 | 1012.2 |
| 20260905181831 | 36 | 284 | 1.6 | 3.2 | 0.00 | 0.00 | 0.00 | 49 | 1012.5 |
| 20260905181330 | 36 | 306 | 3.2 | 4.8 | 0.00 | 0.00 | 0.00 | 48 | 1012.5 |
| 20260905180829 | 36 | 274 | 1.6 | 8.0 | 0.00 | 0.00 | 0.00 | 52 | 1012.5 |
| 20260905180325 | 36 | 251 | 1.6 | 3.2 | 0.00 | 0.00 | 0.00 | 53 | 1012.6 |
| 20260905175819 | 36 | 327 | 3.2 | 4.8 | 0.00 | 0.00 | 0.00 | 50 | 1012.5 |
| 20260905175314 | 36 | 293 | 1.6 | 4.8 | 0.00 | 0.00 | 0.00 | 54 | 1012.6 |
| 20260905174809 | 36 | 287 | 3.2 | 6.4 | 0.00 | 0.00 | 0.00 | 51 | 1012.7 |
| 20260905174305 | 36 | 237 | 1.6 | 4.8 | 0.00 | 0.00 | 0.00 | 52 | 1012.7 |
| 20260905173801 | 35 | 265 | 1.6 | 6.4 | 0.00 | 0.00 | 0.00 | 54 | 1012.9 |
| 20260905173257 | 35 | 292 | 1.6 | 4.8 | 0.00 | 0.00 | 0.00 | 51 | 1012.8 |
| 20260905172756 | 36 | 332 | 6.4 | 9.7 | 0.00 | 0.00 | 0.00 | 50 | 1012.7 |
| 20260905172254 | 36 | 232 | 1.6 | 3.2 | 0.00 | 0.00 | 0.00 | 54 | 1012.8 |
| 20260905171751 | 35 | 286 | 3.2 | 4.8 | 0.00 | 0.00 | 0.00 | 55 | 1012.9 |
| 20260905171247 | 35 | 310 | 4.8 | 6.4 | 0.00 | 0.00 | 0.00 | 55 | 1013.0 |
| 20260905170743 | 35 | 352 | 8.0 | 9.7 | 0.00 | 0.00 | 0.00 | 52 | 1012.9 |
| 20260905170239 | 35 | 288 | 0.0 | 6.4 | 0.00 | 0.00 | 0.00 | 54 | 1013.1 |
| 20260905165738 | 35 | 309 | 0.0 | 6.4 | 0.00 | 0.00 | 0.00 | 51 | 1013.3 |
| 20260905165234 | 35 | 329 | 6.4 | 9.7 | 0.00 | 0.00 | 0.00 | 55 | 1013.3 |
| 20260905164733 | 35 | 337 | 4.8 | 6.4 | 0.00 | 0.00 | 0.00 | 53 | 1013.2 |
| 20260905164228 | 35 | 333 | 8.0 | 8.0 | 0.00 | 0.00 | 0.00 | 52 | 1013.3 |
| 20260905163724 | 35 | 338 | 4.8 | 11.3 | 0.00 | 0.00 | 0.00 | 54 | 1013.3 |
| 20260905163220 | 35 | 343 | 4.8 | 8.0 | 0.00 | 0.00 | 0.00 | 54 | 1013.4 |
| 20260905162717 | 35 | 243 | 1.6 | 3.2 | 0.00 | 0.00 | 0.00 | 58 | 1013.2 |
| 20260905162216 | 34 | 217 | 0.0 | 3.2 | 0.00 | 0.00 | 0.00 | 55 | 1013.4 |
| 20260905161711 | 34 | 317 | 6.4 | 8.0 | 0.00 | 0.00 | 0.00 | 54 | 1013.5 |
| 20260905161209 | 34 | 299 | 1.6 | 4.8 | 0.00 | 0.00 | 0.00 | 56 | 1013.4 |
| 20260905160708 | 34 | 355 | 8.0 | 8.0 | 0.00 | 0.00 | 0.00 | 57 | 1013.6 |
| 20260905160207 | 34 | 304 | 0.0 | 3.2 | 0.00 | 0.00 | 0.00 | 57 | 1013.6 |
| 20260905155702 | 33 | 321 | 0.0 | 3.2 | 0.00 | 0.00 | 0.00 | 56 | 1013.7 |
| 20260905155202 | 33 | 298 | 3.2 | 3.2 | 0.00 | 0.00 | 0.00 | 58 | 1013.5 |
| 20260905154655 | 33 | 321 | 3.2 | 3.2 | 0.00 | 0.00 | 0.00 | 61 | 1013.5 |
| 20260905154151 | 33 | 315 | 6.4 | 11.3 | 0.00 | 0.00 | 0.00 | 60 | 1013.7 |
| 20260905153647 | 33 | 329 | 4.8 | 8.0 | 0.00 | 0.00 | 0.00 | 57 | 1013.8 |
| 20260905153142 | 33 | 312 | 3.2 | 4.8 | 0.00 | 0.00 | 0.00 | 61 | 1013.7 |
| 20260905152637 | 33 | 309 | 3.2 | 4.8 | 0.00 | 0.00 | 0.00 | 63 | 1013.8 |
| 20260905152132 | 33 | 283 | 0.0 | 3.2 | 0.00 | 0.00 | 0.00 | 69 | 1013.7 |
| 20260905151626 | 32 | 239 | 3.2 | 3.2 | 0.00 | 0.00 | 0.00 | 66 | 1013.8 |
| 20260905151122 | 32 | 233 | 0.0 | 3.2 | 0.00 | 0.00 | 0.00 | 67 | 1013.8 |
| 20260905150617 | 32 | 309 | 1.6 | 1.6 | 0.00 | 0.00 | 0.00 | 69 | 1013.6 |
| 20260905150115 | 32 | 0 | 3.2 | 6.4 | 0.00 | 0.00 | 0.00 | 67 | 1013.5 |
| 20260905145614 | 32 | 24 | 1.6 | 3.2 | 0.00 | 0.00 | 0.00 | 68 | 1013.7 |
| 20260905145113 | 31 | 358 | 3.2 | 6.4 | 0.00 | 0.00 | 0.00 | 70 | 1013.6 |
| 20260905144608 | 31 | 1 | 3.2 | 8.0 | 0.00 | 0.00 | 0.00 | 68 | 1013.7 |
| 20260905144108 | 31 | 319 | 3.2 | 8.0 | 0.00 | 0.00 | 0.00 | 71 | 1013.4 |
| 20260905143608 | 31 | 9 | 6.4 | 9.7 | 0.00 | 0.00 | 0.00 | 71 | 1013.7 |
| 20260905143103 | 30 | 344 | 4.8 | 6.4 | 0.00 | 0.00 | 0.00 | 74 | 1013.5 |
| 20260905142602 | 30 | 352 | 4.8 | 6.4 | 0.00 | 0.00 | 0.00 | 76 | 1013.7 |
| 20260905142056 | 30 | 351 | 6.4 | 9.7 | 0.00 | 0.00 | 0.00 | 77 | 1013.4 |
| 20260905141555 | 30 | 345 | 3.2 | 9.7 | 0.00 | 0.00 | 0.00 | 76 | 1013.7 |
| 20260905141053 | 29 | 341 | 3.2 | 8.0 | 0.00 | 0.00 | 0.00 | 78 | 1013.6 |
| 20260905140553 | 29 | 334 | 3.2 | 8.0 | 0.00 | 0.00 | 0.00 | 81 | 1013.6 |
| 20260905140051 | 28 | 354 | 6.4 | 8.0 | 0.00 | 0.00 | 0.00 | 80 | 1013.6 |
| 20260905135547 | 28 | 337 | 4.8 | 4.8 | 0.00 | 0.00 | 0.00 | 84 | 1013.6 |
| 20260905135047 | 28 | 314 | 3.2 | 6.4 | 0.00 | 0.00 | 0.00 | 82 | 1013.8 |
| 20260905134542 | 28 | 320 | 3.2 | 3.2 | 0.00 | 0.00 | 0.00 | 83 | 1013.5 |
| 20260905134041 | 28 | 313 | 3.2 | 6.4 | 0.00 | 0.00 | 0.00 | 81 | 1013.7 |
| 20260905133537 | 27 | 357 | 3.2 | 4.8 | 0.00 | 0.00 | 0.00 | 88 | 1013.5 |
| 20260905133036 | 27 | 300 | 0.0 | 3.2 | 0.00 | 0.00 | 0.00 | 90 | 1013.6 |
| 20260905132536 | 27 | 195 | 0.0 | 0.0 | 0.00 | 0.00 | 0.00 | 92 | 1013.5 |
| 20260905132031 | 26 | 49 | 0.0 | 3.2 | 0.00 | 0.00 | 0.00 | 93 | 1013.8 |